• In Belgien
  • Länderverzeichnis
  • Für 7 Tage
  • Wassertemperatur
  • Satellitenkarten
  • Wetterkarte
  • Widgets
  • user-avatar
    Anmelden

    Stündliche Wetter Rogale

    Heute, 19 Oktober, Freitag

    Zeit Temperatur Niederschläge Wind Luftdruck Luftfeuchtigkeit
    00:00 +10°C° 0 mm 2 m/S 751 mmHg 84%
    01:00 +9°C° 0 mm 2 m/S 751 mmHg 88%
    02:00 +9°C° 0 mm 2 m/S 752 mmHg 90%
    03:00 +9°C° 0 mm 2 m/S 752 mmHg 92%
    04:00 +8°C° 0 mm 2 m/S 752 mmHg 94%
    05:00 +8°C° 0 mm 2 m/S 752 mmHg 95%
    06:00 +8°C° 0 mm 2 m/S 752 mmHg 95%
    07:00 +8°C° 0 mm 2 m/S 752 mmHg 96%
    08:00 +9°C° 0 mm 2 m/S 753 mmHg 89%
    09:00 +12°C° 0 mm 2 m/S 753 mmHg 82%
    10:00 +13°C° 0 mm 2 m/S 753 mmHg 76%
    11:00 +14°C° 0 mm 2 m/S 753 mmHg 71%
    12:00 +14°C° 0 mm 2 m/S 753 mmHg 67%
    13:00 +14°C° 0 mm 3 m/S 754 mmHg 63%
    14:00 +14°C° 0 mm 2 m/S 753 mmHg 66%
    15:00 +13°C° 0 mm 2 m/S 753 mmHg 69%
    16:00 +12°C° 0 mm 2 m/S 753 mmHg 72%
    17:00 +10°C° 0 mm 2 m/S 754 mmHg 76%
    18:00 +9°C° 0 mm 2 m/S 754 mmHg 80%
    19:00 +7°C° 0 mm 2 m/S 754 mmHg 84%
    20:00 +8°C° 0 mm 1 m/S 754 mmHg 86%
    21:00 +7°C° 0 mm 1 m/S 754 mmHg 88%
    22:00 +7°C° 0 mm 1 m/S 754 mmHg 89%
    23:00 +7°C° 0 mm 1 m/S 755 mmHg 90%

    Morgen, 20 Oktober, Samstag

    Zeit Temperatur Niederschläge Wind Luftdruck Luftfeuchtigkeit
    00:00 +6°C° 0 mm 1 m/S 755 mmHg 90%
    01:00 +6°C° 0 mm 1 m/S 755 mmHg 91%
    02:00 +6°C° 0 mm 1 m/S 755 mmHg 91%
    03:00 +6°C° 0 mm 1 m/S 754 mmHg 92%
    04:00 +5°C° 0 mm 1 m/S 754 mmHg 92%
    05:00 +6°C° 0 mm 1 m/S 755 mmHg 92%
    06:00 +6°C° 0 mm 1 m/S 755 mmHg 92%
    07:00 +6°C° 0 mm 1 m/S 755 mmHg 92%
    08:00 +7°C° 0 mm 2 m/S 755 mmHg 85%
    09:00 +8°C° 0 mm 2 m/S 755 mmHg 77%
    10:00 +10°C° 0 mm 3 m/S 755 mmHg 69%
    11:00 +11°C° 0 mm 3 m/S 755 mmHg 66%
    12:00 +11°C° 0 mm 3 m/S 754 mmHg 63%
    13:00 +12°C° 0 mm 3 m/S 754 mmHg 59%
    14:00 +11°C° 0.1 mm 3 m/S 754 mmHg 64%
    15:00 +10°C° 0.1 mm 3 m/S 754 mmHg 68%
    16:00 +10°C° 0.1 mm 3 m/S 754 mmHg 73%
    17:00 +9°C° 0.1 mm 3 m/S 754 mmHg 75%
    18:00 +9°C° 0.1 mm 3 m/S 754 mmHg 78%
    19:00 +9°C° 0.1 mm 3 m/S 754 mmHg 80%
    20:00 +8°C° 0.2 mm 3 m/S 754 mmHg 84%
    21:00 +8°C° 0.2 mm 3 m/S 753 mmHg 87%
    22:00 +7°C° 0.2 mm 3 m/S 753 mmHg 90%
    23:00 +7°C° 0.1 mm 3 m/S 753 mmHg 92%

    übermorgen, 21 Oktober, Sonntag

    Zeit Temperatur Niederschläge Wind Luftdruck Luftfeuchtigkeit
    00:00 +7°C° 0.1 mm 3 m/S 753 mmHg 93%
    01:00 +7°C° 0.1 mm 3 m/S 753 mmHg 94%
    02:00 +6°C° 0 mm 2 m/S 753 mmHg 95%
    03:00 +6°C° 0 mm 2 m/S 753 mmHg 95%
    04:00 +6°C° 0 mm 2 m/S 753 mmHg 96%
    05:00 +6°C° 0 mm 2 m/S 753 mmHg 96%
    06:00 +6°C° 0 mm 2 m/S 754 mmHg 96%
    07:00 +7°C° 0 mm 1 m/S 754 mmHg 96%
    08:00 +8°C° 0 mm 1 m/S 754 mmHg 91%
    09:00 +8°C° 0 mm 2 m/S 754 mmHg 85%
    10:00 +9°C° 0 mm 2 m/S 755 mmHg 80%
    11:00 +10°C° 0 mm 2 m/S 755 mmHg 77%
    12:00 +11°C° 0 mm 1 m/S 755 mmHg 74%
    13:00 +12°C° 0 mm 1 m/S 755 mmHg 70%
    14:00 +11°C° 0 mm 1 m/S 755 mmHg 73%
    15:00 +11°C° 0 mm 1 m/S 755 mmHg 76%
    16:00 +10°C° 0 mm 1 m/S 755 mmHg 78%
    17:00 +9°C° 0 mm 1 m/S 755 mmHg 81%
    18:00 +8°C° 0 mm 1 m/S 755 mmHg 84%
    19:00 +7°C° 0 mm 0 m/S 756 mmHg 87%
    20:00 +7°C° 0 mm 1 m/S 756 mmHg 89%
    21:00 +7°C° 0 mm 1 m/S 756 mmHg 90%
    22:00 +7°C° 0 mm 1 m/S 756 mmHg 91%
    23:00 +5°C° 0 mm 2 m/S 756 mmHg 91%

    22 Oktober, Montag

    Zeit Temperatur Niederschläge Wind Luftdruck Luftfeuchtigkeit
    00:00 +5°C° 0 mm 2 m/S 756 mmHg 92%
    01:00 +5°C° 0 mm 2 m/S 755 mmHg 93%
    02:00 +5°C° 0 mm 2 m/S 755 mmHg 93%
    03:00 +3°C° 0 mm 3 m/S 755 mmHg 94%
    04:00 +3°C° 0 mm 3 m/S 755 mmHg 94%
    05:00 +3°C° 0 mm 3 m/S 754 mmHg 94%
    06:00 +3°C° 0 mm 3 m/S 754 mmHg 94%
    07:00 +3°C° 0 mm 3 m/S 754 mmHg 93%
    08:00 +5°C° 0 mm 4 m/S 754 mmHg 86%
    09:00 +7°C° 0 mm 4 m/S 754 mmHg 79%
    10:00 +9°C° 0 mm 5 m/S 753 mmHg 72%
    11:00 +9°C° 0 mm 5 m/S 753 mmHg 69%
    12:00 +10°C° 0 mm 5 m/S 753 mmHg 66%
    13:00 +10°C° 0 mm 5 m/S 752 mmHg 63%
    14:00 +10°C° 0.2 mm 5 m/S 752 mmHg 69%
    15:00 +10°C° 0.2 mm 4 m/S 751 mmHg 74%
    16:00 +8°C° 0.2 mm 4 m/S 751 mmHg 80%
    17:00 +8°C° 0.4 mm 4 m/S 751 mmHg 82%
    18:00 +7°C° 0.4 mm 4 m/S 751 mmHg 85%
    19:00 +7°C° 0.4 mm 4 m/S 751 mmHg 88%
    20:00 +8°C° 0.3 mm 3 m/S 751 mmHg 86%
    21:00 +7°C° 0.3 mm 3 m/S 751 mmHg 84%
    22:00 +5°C° 0.3 mm 3 m/S 751 mmHg 82%
    23:00 +6°C° 0 mm 2 m/S 751 mmHg 82%

    23 Oktober, Dienstag

    Zeit Temperatur Niederschläge Wind Luftdruck Luftfeuchtigkeit
    00:00 +5°C° 0 mm 2 m/S 751 mmHg 82%
    01:00 +5°C° 0 mm 2 m/S 751 mmHg 83%
    02:00 +5°C° 0 mm 2 m/S 750 mmHg 83%
    03:00 +5°C° 0 mm 2 m/S 750 mmHg 83%
    04:00 +5°C° 0 mm 2 m/S 750 mmHg 84%
    05:00 +4°C° 0 mm 2 m/S 750 mmHg 84%
    06:00 +4°C° 0 mm 2 m/S 750 mmHg 85%
    07:00 +4°C° 0 mm 2 m/S 750 mmHg 86%
    08:00 +5°C° 0 mm 3 m/S 749 mmHg 80%
    09:00 +7°C° 0 mm 3 m/S 749 mmHg 74%
    10:00 +7°C° 0 mm 4 m/S 749 mmHg 68%
    11:00 +8°C° 0 mm 4 m/S 748 mmHg 65%
    12:00 +8°C° 0 mm 5 m/S 748 mmHg 61%
    13:00 +9°C° 0 mm 6 m/S 747 mmHg 58%
    14:00 +8°C° 0.2 mm 6 m/S 746 mmHg 63%
    15:00 +7°C° 0.2 mm 6 m/S 745 mmHg 67%
    16:00 +7°C° 0.2 mm 6 m/S 745 mmHg 72%
    17:00 +7°C° 0.3 mm 6 m/S 744 mmHg 75%
    18:00 +5°C° 0.3 mm 6 m/S 743 mmHg 79%
    19:00 +5°C° 0.3 mm 6 m/S 743 mmHg 82%
    20:00 +5°C° 0.1 mm 6 m/S 742 mmHg 82%
    21:00 +5°C° 0.1 mm 6 m/S 742 mmHg 82%
    22:00 +5°C° 0.1 mm 5 m/S 741 mmHg 82%
    23:00 +5°C° 0.1 mm 5 m/S 741 mmHg 82%

    24 Oktober, Mittwoch

    Zeit Temperatur Niederschläge Wind Luftdruck Luftfeuchtigkeit
    00:00 +3°C° 0.1 mm 5 m/S 740 mmHg 83%
    01:00 +3°C° 0.1 mm 5 m/S 740 mmHg 84%
    02:00 +3°C° 0.3 mm 5 m/S 739 mmHg 83%
    03:00 +3°C° 0.3 mm 5 m/S 737 mmHg 82%
    04:00 +3°C° 0.3 mm 6 m/S 736 mmHg 81%
    05:00 +4°C° 1.8 mm 6 m/S 734 mmHg 84%
    06:00 +5°C° 1.8 mm 7 m/S 732 mmHg 87%
    07:00 +6°C° 1.8 mm 7 m/S 730 mmHg 90%
    08:00 +7°C° 0.7 mm 8 m/S 729 mmHg 85%
    09:00 +9°C° 0.7 mm 8 m/S 728 mmHg 81%
    10:00 +10°C° 0.7 mm 8 m/S 727 mmHg 76%
    11:00 +8°C° 0.4 mm 9 m/S 727 mmHg 73%
    12:00 +8°C° 0.4 mm 10 m/S 727 mmHg 70%
    13:00 +7°C° 0.4 mm 11 m/S 727 mmHg 68%
    14:00 +7°C° 0.2 mm 10 m/S 728 mmHg 70%
    15:00 +6°C° 0.2 mm 10 m/S 728 mmHg 72%
    16:00 +5°C° 0.2 mm 9 m/S 729 mmHg 74%
    17:00 +5°C° 0.3 mm 9 m/S 730 mmHg 74%
    18:00 +3°C° 0.3 mm 10 m/S 732 mmHg 73%
    19:00 +3°C° 0.3 mm 10 m/S 733 mmHg 73%
    20:00 +2°C° 0 mm 9 m/S 735 mmHg 73%
    21:00 +2°C° 0 mm 8 m/S 736 mmHg 73%
    22:00 +2°C° 0 mm 7 m/S 738 mmHg 74%
    23:00 +2°C° 0 mm 7 m/S 738 mmHg 74%
    Mehr zeigen